Regional Weather Roundup
Issued by NWS

Home | Current Version | Previous Version | Graphics & Text | Print | Product List | Glossary On
Versions: 1 2 3 4 5 6 7 8 9 10 11 12 13 14 15 16 17 18 19 20 21 22 23 24 25 26 27 28 29 30 31 32 33 34 35 36 37 38 39 40 41 42 43 44 45 46 47 48 49 50
000
ASUS43 KFSD 291610
RWRSD

WEATHER ROUNDUP FOR SOUTH DAKOTA
NATIONAL WEATHER SERVICE SIOUX FALLS SD
1100 AM CDT FRI AUG 29 2014

NOTE: "FAIR" INDICATES FEW OR NO CLOUDS BELOW 12,000 FEET WITH NO
SIGNIFICANT WEATHER AND/OR OBSTRUCTIONS TO VISIBILITY.


SDZ001>005-009-010-012>017-291700-
NORTHWEST AND NORTH CENTRAL SOUTH DAKOTA

CITY           SKY/WX    TMP DP  RH WIND       PRES   REMARKS
BUFFALO          N/A     66  52  60 NW28G35   29.92F
FAITH            N/A     71  54  54 N24G39    29.91S
MOBRIDGE       PTSUNNY   69  66  90 NW18G26   29.83R
$$

SDZ012>016-024>037-041>051-057-063-072>074-291700-
SOUTHWEST AND SOUTH CENTRAL SOUTH DAKOTA

CITY           SKY/WX    TMP DP  RH WIND       PRES   REMARKS
RAPID CTY ARPT SUNNY     70  54  56 N24G30    29.99R
PIERRE         CLOUDY    65  65 100 W10       29.84R FOG
CUSTER         PTSUNNY   63  49  60 N7        30.09R
ELLSWORTH AFB  PTSUNNY   69  54  58 N23G33    30.00
PHILIP         SUNNY     72  58  61 NW26G32   29.88S
PINE RIDGE     SUNNY     73  54  51 N16G24    29.98F
WINNER         FAIR      74  65  73 VRB7      29.85S
$$

SDZ004>011-016>023-039-040-291700-
NORTHEAST SOUTH DAKOTA

CITY           SKY/WX    TMP DP  RH WIND       PRES   REMARKS
ABERDEEN       CLOUDY    66  66 100 CALM      29.80S
WATERTOWN      CLOUDY    69  66  90 N6        29.81R
SISSETON         N/A     68  67  96 N7        29.79R
$$

SDZ017-020-022-023-036>040-048>070-291700-
SOUTHEAST SOUTH DAKOTA

CITY           SKY/WX    TMP DP  RH WIND       PRES   REMARKS
SIOUX FALLS    CLOUDY    72  69  90 CALM      29.81R
HURON          PTSUNNY   72  67  84 NW8       29.80R
CHAMBERLAIN    CLOUDY    69  66  91 NW5       29.84R
MITCHELL       CLOUDY    71  70  96 W5        29.81R
YANKTON        CLOUDY    72  66  83 CALM      29.82R
$$

ABBREVIATIONS USED IN REMARKS
   TC - TEMPERATURE IN CELSIUS
  WCI - WIND CHILL INDEX
   HX - HEAT INDEX
  VSB - VISIBILITY




USA.gov is the U.S. government's official web portal to all federal, state and local government web resources and services.